Ellensburg, WA
on Sunday, January 27, 2013

Sunday
Previous Day Next Day
Daily Summary
 ActualAverage (KYKM)Record (KYKM)
Temperature
Mean Temperature °F 33°F  
Max Temperature 28°F 41°F 59°F (1976)
Min Temperature 21°F 25°F -18°F (1957)
Degree Days
Heating Degree Days 40 32  
Month to date heating degree days 930  
Since 1 July heating degree days 3593  
Cooling Degree Days 0 0  
Month to date cooling degree days 0  
Year to date cooling degree days 0  
Moisture
Dew Point 22°F   
Average Humidity 85    
Maximum Humidity 89    
Minimum Humidity 80    
Precipitation
Precipitation 0.00 in 0.03 in 0.60 in (1954)
Month to date precipitation 1.02  
Year to date precipitation 1.02  
Snow
Snow 0.00 in 0.10 in 7.90 in (1954)
Month to date snowfall 4.8  
Year to date snowfall 4.8  
Since 1 July snowfall 17.8  
Snow Depth in   
Wind
Wind Speed 1 mph   
Max Wind Speed 6 mph   
Max Gust Speed mph   

Key: T is trace of precipitation, MM is missing value
Source: NWS Daily Summary
Time(PST)TemperatureDew PointHumidity Pressure Visibility Wind DirectionWind SpeedGust SpeedPrecipitationEvents Conditions
12:53 AM 28.9°F 26.1°F 89% 30.01 in - Calm Calm - N/A   Overcast
1:53 AM 28.9°F 25.0°F 85% 30.01 in - Calm Calm - N/A   Overcast
2:53 AM 28.0°F 25.0°F 88% 30.02 in - Calm Calm - N/A   Overcast
3:53 AM 27.0°F 24.1°F 89% 30.01 in - SW 3.5 mph - N/A   Overcast
4:53 AM 26.1°F 23.0°F 88% 30.02 in - West 3.5 mph - N/A   Overcast
5:53 AM 26.1°F 21.9°F 84% 30.02 in - West 3.5 mph - N/A   Overcast
6:53 AM 25.0°F 21.0°F 85% 30.03 in - Calm Calm - N/A   Overcast
7:53 AM 24.1°F 21.0°F 88% 30.04 in - WSW 3.5 mph - N/A   Overcast
8:53 AM 24.1°F 21.0°F 88% 30.05 in - WSW 5.8 mph - N/A   Overcast
9:53 AM 25.0°F 21.9°F 88% 30.05 in - Calm Calm - N/A   Overcast
10:53 AM 26.1°F 23.0°F 88% 30.06 in - Calm Calm - N/A   Overcast
11:53 AM 27.0°F 23.0°F 85% 30.04 in - Calm Calm - N/A   Overcast
12:53 PM 27.0°F 23.0°F 85% 30.02 in - Calm Calm - N/A   Overcast
1:53 PM 28.0°F 23.0°F 81% 30.00 in - Calm Calm - N/A   Overcast
2:53 PM 28.9°F 24.1°F 82% 29.99 in - Calm Calm - N/A   Mostly Cloudy
3:53 PM 28.9°F 24.1°F 82% 29.99 in - Calm Calm - N/A   Clear
4:53 PM 27.0°F 23.0°F 85% 29.99 in - Calm Calm - N/A   Clear
5:28 PM 26.6°F 21.2°F 80% 29.93 in - Calm Calm - N/A   Scattered Clouds
5:37 PM 26.6°F 21.2°F 80% 29.93 in - Calm Calm - N/A   Mostly Cloudy
5:53 PM 27.0°F 21.9°F 81% 29.99 in - Calm Calm - N/A   Overcast
6:53 PM 25.0°F 21.0°F 85% 29.99 in - Calm Calm - N/A   Overcast
7:53 PM 23.0°F 18.0°F 81% 29.99 in - Calm Calm - N/A   Mostly Cloudy
8:16 PM 23.0°F 17.6°F 80% 29.92 in - Calm Calm - N/A   Mostly Cloudy
8:35 PM 21.2°F 17.6°F 86% 29.92 in - Calm Calm - N/A   Overcast
8:53 PM 21.9°F 18.0°F 85% 29.99 in - NE 4.6 mph - N/A   Overcast
9:53 PM 24.1°F 19.9°F 84% 29.99 in - Calm Calm - N/A   Overcast
10:53 PM 25.0°F 21.9°F 88% 29.98 in - Calm Calm - N/A   Overcast
11:53 PM 24.1°F 21.0°F 88% 29.98 in - Calm Calm - N/A   Overcast
Moon Phase
Jan. 27 Feb. 03 Feb. 10 Feb. 17 Feb. 25
Sunrise:07:32 AM (PST) Moon Rise:06:04 PM (PST)
Sunset:04:57 PM (PST) Moon Set:07:22 AM (PST)

Copyright © 2014 The Weather Underground, Inc.